Location: Newark
(35.0033°N, 81.0878°W)
Time: 13:46:37
(UTC+00:00)

ISS - Visible Passes

Search period start: 21 July 2019 00:00
Search period end: 31 July 2019 00:00
Orbit: 409 x 418 km, 51.6° (Epoch: 21 July)

Date Brightness Start Highest point End Pass type
(mag) Time Alt. Az. Time Alt. Az. Time Alt. Az.
21 Jul -1.0 01:35:47 10° W 01:38:30 22° NNW 01:41:12 10° NNE visible
23 Jul -0.4 01:35:48 10° NW 01:36:54 11° NNW 01:38:00 10° N visible
28 Jul -0.2 03:58:19 10° NNW 03:58:24 10° NNW 03:58:24 10° NNW visible
29 Jul -0.7 03:09:45 10° N 03:10:36 11° NNE 03:10:36 11° NNE visible
30 Jul -0.2 03:55:32 10° NNW 03:55:38 11° NNW 03:55:38 11° NNW visible
